BEIDOU-3 M2 (C20)

Last updated on Sat Apr 11 2026 00:03:32 GMT+0000 (Coordinated Universal Time)

1 43002U 17069B 26098.26732656 -.00000010 00000+0 00000+0 0 9994 2 43002 56.6326 65.4217 0010117 334.3940 25.5369 1.86230898 57298
UTC large
Height (km)
Speed (km/s)
/
Latitude / Longitude
Inclination (degrees)
Orbital Period (minutes)
Azimuth
Elevation
Range (km)
Doppler Factor

Next 0 passes for location: London (51.5072 / 0.1276)

Sorry there are no passes over London.